Hourly Weather Barsuki

Today, 19 April, Monday

Time Temperature Precipitation Wind Pressure Humidity
00:00 +5°C° 0 mm 2 mps 747 mmHg 90%
01:00 +3°C° 0 mm 3 mps 747 mmHg 90%
02:00 +3°C° 0 mm 3 mps 747 mmHg 92%
03:00 +3°C° 0 mm 3 mps 747 mmHg 90%
04:00 +4°C° 0 mm 3 mps 747 mmHg 88%
05:00 +4°C° 0 mm 3 mps 747 mmHg 85%
06:00 +5°C° 0 mm 3 mps 747 mmHg 84%
07:00 +5°C° 0 mm 4 mps 747 mmHg 83%
08:00 +6°C° 0 mm 4 mps 747 mmHg 81%
09:00 +7°C° 0 mm 5 mps 747 mmHg 78%
10:00 +7°C° 0 mm 5 mps 747 mmHg 74%
11:00 +8°C° 0 mm 6 mps 747 mmHg 71%
12:00 +8°C° 0.1 mm 6 mps 747 mmHg 73%
13:00 +8°C° 0.1 mm 6 mps 747 mmHg 75%
14:00 +8°C° 0.1 mm 6 mps 747 mmHg 77%
15:00 +7°C° 0 mm 5 mps 747 mmHg 77%
16:00 +7°C° 0 mm 5 mps 747 mmHg 78%
17:00 +7°C° 0 mm 4 mps 747 mmHg 79%
18:00 +7°C° 0.1 mm 4 mps 746 mmHg 79%
19:00 +7°C° 0.1 mm 5 mps 746 mmHg 80%
20:00 +7°C° 0.1 mm 5 mps 746 mmHg 81%
21:00 +6°C° 0 mm 5 mps 746 mmHg 82%
22:00 +6°C° 0 mm 5 mps 746 mmHg 83%
23:00 +5°C° 0 mm 5 mps 746 mmHg 84%

Tomorrow, 20 April, Tuesday

Time Temperature Precipitation Wind Pressure Humidity
00:00 +5°C° 0 mm 5 mps 745 mmHg 84%
01:00 +5°C° 0 mm 5 mps 745 mmHg 84%
02:00 +5°C° 0 mm 5 mps 745 mmHg 85%
03:00 +3°C° 0.1 mm 5 mps 744 mmHg 88%
04:00 +3°C° 0.1 mm 5 mps 744 mmHg 92%
05:00 +2°C° 0.1 mm 5 mps 744 mmHg 95%
06:00 +2°C° 0.1 mm 5 mps 744 mmHg 95%
07:00 +2°C° 0.1 mm 5 mps 744 mmHg 96%
08:00 +3°C° 0.1 mm 4 mps 744 mmHg 96%
09:00 +3°C° 0 mm 4 mps 743 mmHg 96%
10:00 +1°C° 0 mm 4 mps 743 mmHg 96%
11:00 +1°C° 0 mm 4 mps 743 mmHg 96%
12:00 +3°C° 0 mm 4 mps 743 mmHg 96%
13:00 +3°C° 0 mm 4 mps 742 mmHg 95%
14:00 +3°C° 0 mm 4 mps 742 mmHg 95%
15:00 +3°C° 0.2 mm 4 mps 742 mmHg 94%
16:00 +3°C° 0.2 mm 4 mps 741 mmHg 94%
17:00 +4°C° 0.2 mm 4 mps 741 mmHg 93%
18:00 +3°C° 0.6 mm 4 mps 741 mmHg 94%
19:00 +3°C° 0.6 mm 4 mps 740 mmHg 95%
20:00 +3°C° 0.6 mm 3 mps 740 mmHg 95%
21:00 +3°C° 0 mm 3 mps 740 mmHg 95%
22:00 +3°C° 0 mm 3 mps 739 mmHg 94%
23:00 +2°C° 0 mm 3 mps 738 mmHg 93%

Day after tomorrow, 21 April, Wednesday

Time Temperature Precipitation Wind Pressure Humidity
00:00 +2°C° 0 mm 3 mps 738 mmHg 93%
01:00 +2°C° 0 mm 3 mps 738 mmHg 93%
02:00 +2°C° 0 mm 3 mps 737 mmHg 93%
03:00 +2°C° 0 mm 3 mps 737 mmHg 93%
04:00 +1°C° 0 mm 4 mps 736 mmHg 93%
05:00 +1°C° 0 mm 4 mps 736 mmHg 92%
06:00 +1°C° 0 mm 4 mps 736 mmHg 88%
07:00 +3°C° 0 mm 4 mps 736 mmHg 84%
08:00 +2°C° 0 mm 5 mps 736 mmHg 81%
09:00 +2°C° 0 mm 5 mps 736 mmHg 80%
10:00 +3°C° 0 mm 5 mps 736 mmHg 80%
11:00 +3°C° 0 mm 5 mps 736 mmHg 79%
12:00 +3°C° 0.1 mm 5 mps 737 mmHg 80%
13:00 +5°C° 0.1 mm 5 mps 737 mmHg 80%
14:00 +5°C° 0.1 mm 5 mps 737 mmHg 80%
15:00 +5°C° 0 mm 4 mps 737 mmHg 78%
16:00 +5°C° 0 mm 4 mps 738 mmHg 76%
17:00 +6°C° 0 mm 4 mps 738 mmHg 74%
18:00 +5°C° 0 mm 4 mps 738 mmHg 78%
19:00 +4°C° 0 mm 3 mps 738 mmHg 83%
20:00 +3°C° 0 mm 3 mps 738 mmHg 88%
21:00 +4°C° 0.2 mm 4 mps 738 mmHg 88%
22:00 +4°C° 0.2 mm 4 mps 738 mmHg 88%
23:00 +3°C° 0.2 mm 5 mps 738 mmHg 89%

22 April, Thursday

Time Temperature Precipitation Wind Pressure Humidity
00:00 +4°C° 0.1 mm 4 mps 738 mmHg 90%
01:00 +4°C° 0.1 mm 4 mps 738 mmHg 92%
02:00 +4°C° 0.1 mm 4 mps 738 mmHg 93%
03:00 +4°C° 0 mm 3 mps 739 mmHg 94%
04:00 +3°C° 0 mm 3 mps 739 mmHg 95%
05:00 +3°C° 0 mm 3 mps 739 mmHg 95%
06:00 +4°C° 0 mm 3 mps 740 mmHg 89%
07:00 +7°C° 0 mm 3 mps 740 mmHg 82%
08:00 +9°C° 0 mm 3 mps 740 mmHg 76%
09:00 +10°C° 0.1 mm 4 mps 740 mmHg 72%
10:00 +10°C° 0.1 mm 5 mps 741 mmHg 68%
11:00 +12°C° 0.1 mm 5 mps 741 mmHg 64%
12:00 +13°C° 0.4 mm 5 mps 741 mmHg 64%
13:00 +13°C° 0.4 mm 5 mps 741 mmHg 63%
14:00 +13°C° 0.4 mm 5 mps 741 mmHg 62%
15:00 +13°C° 0.4 mm 5 mps 741 mmHg 63%
16:00 +13°C° 0.4 mm 5 mps 741 mmHg 63%
17:00 +13°C° 0.4 mm 5 mps 741 mmHg 64%
18:00 +12°C° 0.1 mm 4 mps 741 mmHg 69%
19:00 +10°C° 0.1 mm 3 mps 742 mmHg 75%
20:00 +9°C° 0.1 mm 3 mps 742 mmHg 80%
21:00 +8°C° 0 mm 3 mps 742 mmHg 82%
22:00 +7°C° 0 mm 3 mps 742 mmHg 83%
23:00 +7°C° 0 mm 3 mps 742 mmHg 84%

23 April, Friday

Time Temperature Precipitation Wind Pressure Humidity
00:00 +7°C° 0 mm 3 mps 742 mmHg 87%
01:00 +5°C° 0 mm 3 mps 741 mmHg 89%
02:00 +5°C° 0 mm 4 mps 741 mmHg 92%
03:00 +5°C° 0 mm 4 mps 741 mmHg 91%
04:00 +6°C° 0 mm 5 mps 740 mmHg 91%
05:00 +6°C° 0 mm 5 mps 740 mmHg 91%
06:00 +7°C° 0 mm 5 mps 740 mmHg 87%
07:00 +8°C° 0 mm 6 mps 740 mmHg 83%
08:00 +9°C° 0 mm 6 mps 740 mmHg 79%
09:00 +9°C° 0.2 mm 6 mps 740 mmHg 79%
10:00 +9°C° 0.2 mm 6 mps 739 mmHg 79%
11:00 +9°C° 0.2 mm 6 mps 739 mmHg 79%
12:00 +7°C° 0.4 mm 5 mps 740 mmHg 84%
13:00 +5°C° 0.4 mm 5 mps 740 mmHg 89%
14:00 +1°C° 0.4 mm 5 mps 741 mmHg 95%
15:00 +3°C° 0.2 mm 4 mps 741 mmHg 91%
16:00 +3°C° 0.2 mm 4 mps 741 mmHg 88%
17:00 +4°C° 0.2 mm 3 mps 741 mmHg 84%
18:00 +4°C° 0 mm 3 mps 741 mmHg 83%
19:00 +4°C° 0 mm 4 mps 741 mmHg 82%
20:00 +4°C° 0 mm 4 mps 741 mmHg 81%
21:00 +4°C° 0 mm 4 mps 741 mmHg 84%
22:00 +3°C° 0 mm 4 mps 741 mmHg 87%
23:00 +3°C° 0 mm 4 mps 741 mmHg 90%

24 April, Saturday

Time Temperature Precipitation Wind Pressure Humidity
00:00 +1°C° 0 mm 4 mps 741 mmHg 91%
01:00 +1°C° 0 mm 3 mps 740 mmHg 92%
02:00 +1°C° 0 mm 3 mps 740 mmHg 94%
03:00 0°C° 0 mm 3 mps 740 mmHg 94%
04:00 0°C° 0 mm 3 mps 740 mmHg 95%
05:00 0°C° 0 mm 3 mps 740 mmHg 96%
06:00 -1°C° 0 mm 4 mps 741 mmHg 91%
07:00 0°C° 0 mm 4 mps 741 mmHg 87%
08:00 +1°C° 0 mm 5 mps 741 mmHg 83%
09:00 +1°C° 0.1 mm 5 mps 741 mmHg 74%
10:00 +2°C° 0.1 mm 6 mps 741 mmHg 64%
11:00 +3°C° 0.1 mm 6 mps 742 mmHg 55%
12:00 +4°C° 0.1 mm 7 mps 742 mmHg 50%
13:00 +4°C° 0.1 mm 7 mps 742 mmHg 45%
14:00 +5°C° 0.1 mm 7 mps 742 mmHg 40%
15:00 +5°C° 0 mm 6 mps 742 mmHg 42%
16:00 +6°C° 0 mm 5 mps 742 mmHg 43%
17:00 +6°C° 0 mm 4 mps 742 mmHg 45%
18:00 +5°C° 0 mm 3 mps 742 mmHg 50%
19:00 +5°C° 0 mm 2 mps 742 mmHg 55%
20:00 +5°C° 0 mm 1 mps 742 mmHg 60%
21:00 +4°C° 0.3 mm 1 mps 742 mmHg 71%
22:00 +3°C° 0.3 mm 1 mps 742 mmHg 81%
23:00 +3°C° 0.3 mm 1 mps 742 mmHg 92%
Show more